This demonstration page uses our WeatherBlox Daily Observations layout. Learn more.

Left ArrowRight Arrow

39.51506, -84.39828

Hourly Observations for September 2, 2020

Temp ( °F °C ) Dew Point ( °F °C ) Humidity (%) Winds ( mph kmh ) Pressure ( in mb ) Visibility ( mi km ) Precip ( " mm )
12:15 am 00:15 Cloudy 76 24.4 73 22.7 90 90 WSW 3 6 29.85 1011 10 16.0934 0 0
12:35 am 00:35 Partly Cloudy 76 24.3 73 22.7 91 91 SW 3 6 29.85 1011 10 16.0934 0 0
12:55 am 00:55 Clear 75 23.7 73 22.5 93 93 Calm 29.84 1010 10 16.0934 0 0
1:15 am 01:15 Clear 74 23.1 72 22.4 96 96 WSW 3 6 29.84 1010 10 16.0934 0 0
1:35 am 01:35 Clear 74 23.2 73 22.5 96 96 SW 3 6 29.83 1010 10 16.0934 0 0
1:55 am 01:55 Partly Cloudy 74 23.3 73 22.6 96 96 SW 3 6 29.84 1010 10 16.0934 0 0
2:15 am 02:15 Mostly Cloudy 74 23.4 73 22.6 95 95 SW 3 6 29.83 1010 10 16.0934 0 0
2:35 am 02:35 Cloudy 74 23.6 73 22.7 95 95 SW 3 6 29.82 1010 10 16.0934 0 0
2:55 am 02:55 Partly Cloudy 75 23.8 73 22.7 94 94 SW 3 6 29.81 1009 10 16.0934 0 0
3:15 am 03:15 Partly Cloudy 74 23.6 73 22.8 95 95 SW 5 7 29.81 1009 10 16.0934 0 0
3:35 am 03:35 Partly Cloudy 74 23.6 73 22.7 95 95 WSW 3 6 29.81 1009 10 16.0934 0 0
3:55 am 03:55 Cloudy with Light Rain 74 23.6 73 22.9 96 96 SW 5 7 29.8 1009 10 16.0934 0 0
4:15 am 04:15 Partly Cloudy with Light Rain 75 23.7 73 22.9 95 95 SW 7 11 29.8 1009 10 16.0934 0 0
4:35 am 04:35 Cloudy with Rain 74 23.5 73 23 97 97 SSW 6 9 29.8 1009 10 16.0934 0 0
4:55 am 04:55 Cloudy 74 23.6 73 22.9 96 96 SSW 9 15 29.8 1009 10 16.0934 0 0
5:15 am 05:15 Cloudy with Light Rain 74 23.3 73 23 98 98 SSW 7 11 29.79 1009 7 11.26538 0 0
5:35 am 05:35 Cloudy 74 23.2 73 23 99 99 SSW 6 9 29.79 1009 10 16.0934 0 0
5:55 am 05:55 Cloudy with Rain 74 23.2 73 22.9 98 98 SW 7 11 29.79 1009 10 16.0934 0 0
6:15 am 06:15 Cloudy 74 23.2 74 23.1 99 99 SW 7 11 29.79 1009 10 16.0934 0 0
6:35 am 06:35 Cloudy 74 23.2 73 23 99 99 SW 7 11 29.8 1009 10 16.0934 0 0
6:55 am 06:55 Cloudy 74 23.2 73 23 99 99 SW 6 9 29.8 1009 10 16.0934 0 0
7:15 am 07:15 Cloudy 74 23.2 73 23 99 99 SW 7 11 29.8 1009 10 16.0934 0 0
7:35 am 07:35 Cloudy with Rain 73 23 73 23 100 100 WSW 5 7 29.8 1009 2 3.21868 0 0
7:55 am 07:55 Cloudy 73 23 N/A N/A SSW 6 9 29.8 1009 7 11.26538 0 0
8:15 am 08:15 Cloudy 73 22.9 73 22.8 99 99 WSW 3 6 29.81 1009 10 16.0934 0 0
8:35 am 08:35 Cloudy 74 23.1 73 23 99 99 SW 3 6 29.81 1009 10 16.0934 0 0
8:55 am 08:55 Cloudy 74 23.2 74 23.1 99 99 SW 7 11 29.81 1009 10 16.0934 0 0
9:15 am 09:15 Cloudy 74 23.2 74 23.1 99 99 SW 7 11 29.82 1010 10 16.0934 0 0
9:35 am 09:35 Cloudy 74 23.4 74 23.1 98 98 SW 7 11 29.82 1010 10 16.0934 0 0
9:55 am 09:55 Cloudy 75 23.8 74 23.1 96 96 WSW 8 13 29.83 1010 10 16.0934 0 0
10:15 am 10:15 Cloudy 76 24.3 73 23 92 92 WSW 10 17 29.81 1010 10 16.0934 0 0
10:35 am 10:35 Cloudy 76 24.7 73 23 90 90 WSW 7 11 29.83 1010 10 16.0934 0 0
10:55 am 10:55 Cloudy 77 25.2 73 22.7 86 86 SW 10 17 29.82 1010 10 16.0934 0 0
11:15 am 11:15 Cloudy 77 24.9 72 22.1 85 85 WSW 10 17 29.83 1010 10 16.0934 0 0
11:35 am 11:35 Cloudy 78 25.3 72 22.2 83 83 WSW 8 13 29.84 1011 10 16.0934 0 0
11:55 am 11:55 Cloudy 77 25.2 71 21.6 81 81 W 10 17 29.84 1011 10 16.0934 0 0
12:15 pm 12:15 Cloudy 78 25.5 71 21.6 79 79 WSW 14 22 29.84 1011 10 16.0934 0 0
12:35 pm 12:35 Mostly Cloudy 81 27.3 72 22.1 73 73 WSW 13 20 29.84 1010 10 16.0934 0 0
12:55 pm 12:55 Cloudy 80 26.7 71 21.5 73 73 W 12 19 29.84 1010 10 16.0934 0 0
1:15 pm 13:15 Cloudy 82 27.6 70 21.1 68 68 W 9 15 29.85 1011 10 16.0934 0 0
1:35 pm 13:35 Mostly Cloudy 83 28.4 71 21.6 67 67 W 12 19 29.85 1011 10 16.0934 0 0
1:55 pm 13:55 Cloudy 83 28.2 69 20.8 64 64 W 12 19 29.85 1011 10 16.0934 0 0
2:15 pm 14:15 Cloudy 82 27.9 69 20.8 65 65 W 9 15 29.86 1011 10 16.0934 0 0
2:35 pm 14:35 Cloudy 82 28 70 21 66 66 WSW 12 19 29.85 1011 10 16.0934 0 0
2:55 pm 14:55 Cloudy 83 28.2 70 21.2 66 66 WSW 13 20 29.85 1011 10 16.0934 0 0
3:15 pm 15:15 Mostly Cloudy 83 28.5 71 21.6 66 66 W 10 17 29.85 1011 10 16.0934 0 0
3:35 pm 15:35 Cloudy 82 27.5 71 21.5 70 70 WNW 12 19 29.85 1011 10 16.0934 0 0
3:55 pm 15:55 Cloudy 83 28.4 71 21.5 66 66 W 9 15 29.85 1011 10 16.0934 0 0
4:15 pm 16:15 Cloudy 81 27.1 70 21.2 70 70 WNW 8 13 29.84 1010 10 16.0934 0 0
4:35 pm 16:35 Cloudy 81 27.3 71 21.4 70 70 W 10 17 29.84 1010 10 16.0934 0 0
4:55 pm 16:55 Cloudy 80 26.8 70 21.3 72 72 WNW 9 15 29.85 1011 10 16.0934 0 0
5:15 pm 17:15 Cloudy 79 26.3 71 21.4 75 75 W 7 11 29.85 1011 10 16.0934 0 0
5:35 pm 17:35 Mostly Cloudy 79 26.2 71 21.5 75 75 WNW 8 13 29.85 1011 10 16.0934 0 0
5:55 pm 17:55 Mostly Cloudy 78 25.7 71 21.6 78 78 WNW 7 11 29.85 1011 10 16.0934 0 0
6:15 pm 18:15 Partly Cloudy 78 25.6 71 21.7 79 79 WNW 6 9 29.85 1011 10 16.0934 0 0
6:35 pm 18:35 Sunny 78 25.4 71 21.9 81 81 WNW 3 6 29.85 1011 10 16.0934 0 0
6:55 pm 18:55 Sunny 78 25.4 71 21.6 80 80 WSW 3 6 29.86 1011 10 16.0934 0 0
7:15 pm 19:15 Sunny 77 25.2 71 21.8 82 82 WSW 3 6 29.86 1011 10 16.0934 0 0
7:35 pm 19:35 Sunny 77 25 71 21.9 83 83 WSW 5 7 29.86 1011 10 16.0934 0 0
7:55 pm 19:55 Sunny 76 24.6 71 21.9 85 85 Calm 29.87 1012 10 16.0934 0 0
8:15 pm 20:15 Clear 75 24 72 22 89 89 Calm 29.88 1012 10 16.0934 0 0
8:35 pm 20:35 Clear 73 22.8 71 21.8 94 94 Calm 29.88 1012 10 16.0934 0 0
8:55 pm 20:55 Clear 73 22.7 72 22 96 96 Calm 29.88 1012 10 16.0934 0 0
9:15 pm 21:15 Partly Cloudy 72 22.1 71 21.7 98 98 Calm 29.89 1012 10 16.0934 0 0
9:35 pm 21:35 Clear 71 21.7 71 21.7 100 100 Calm 29.89 1012 10 16.0934 0 0
9:55 pm 21:55 Clear 71 21.5 71 21.4 99 99 Calm 29.9 1013 10 16.0934 0 0
10:15 pm 22:15 Clear 70 21 70 21 100 100 Calm 29.89 1012 10 16.0934 0 0
10:35 pm 22:35 Clear 70 21.1 70 21.1 100 100 Calm 29.89 1012 10 16.0934 0 0
10:55 pm 22:55 Clear 69 20.8 69 20.7 99 99 Calm 29.9 1013 7 11.26538 0 0
11:15 pm 23:15 Hazy 68 20 N/A N/A Calm 29.9 1013 7 11.26538 0 0
11:35 pm 23:35 Hazy 68 20 N/A N/A Calm 29.91 1013 7 11.26538 0 0
11:55 pm 23:55 Partly Cloudy 68 20 N/A N/A Calm 29.9 1013 7 11.26538 0 0

Powered by AerisWeather